Time,TemperatureF,DewpointF,PressureIn,WindDirection,WindDirectionDegrees,WindSpeedMPH,WindSpeedGustMPH,Humidity,HourlyPrecipIn,Conditions,Clouds,dailyrainin,SoftwareType,DateUTC
2013-04-09 00:03:00,38.0,37.0,30.05,West,277,0.0,-999.0,95,-99.99,,,-99.99,,2013-04-09 04:03:00,
2013-04-09 00:13:00,38.0,37.0,30.05,West,277,0.0,-999.0,95,-99.99,,,-99.99,,2013-04-09 04:13:00,
2013-04-09 00:23:00,38.0,37.0,30.04,West,277,0.0,-999.0,95,-99.99,,,-99.99,,2013-04-09 04:23:00,
2013-04-09 00:33:00,38.0,37.0,30.04,West,277,0.0,-999.0,95,-99.99,,,-99.99,,2013-04-09 04:33:00,
2013-04-09 00:42:00,38.0,37.0,30.04,West,277,0.0,-999.0,95,-99.99,,,-99.99,,2013-04-09 04:42:00,
2013-04-09 00:52:00,38.0,37.0,30.04,West,277,0.0,-999.0,95,-99.99,,,-99.99,,2013-04-09 04:52:00,
2013-04-09 01:02:00,38.0,37.0,30.06,West,277,0.0,-999.0,96,-99.99,,,-99.99,,2013-04-09 05:02:00,
2013-04-09 01:12:00,38.0,37.0,30.06,West,278,0.0,-999.0,96,-99.99,,,-99.99,,2013-04-09 05:12:00,
2013-04-09 01:22:00,38.0,37.0,30.06,West,278,0.0,-999.0,96,-99.99,,,-99.99,,2013-04-09 05:22:00,
2013-04-09 01:32:00,39.0,38.0,30.07,West,278,0.0,-999.0,96,-99.99,,,-99.99,,2013-04-09 05:32:00,
2013-04-09 01:43:00,39.0,38.0,30.08,West,278,0.0,-999.0,96,-99.99,,,-99.99,,2013-04-09 05:43:00,
2013-04-09 01:52:00,39.0,38.0,30.08,West,278,0.0,-999.0,96,-99.99,,,-99.99,,2013-04-09 05:52:00,
2013-04-09 02:02:00,39.0,38.0,30.08,West,278,0.0,-999.0,96,-99.99,,,-99.99,,2013-04-09 06:02:00,
2013-04-09 02:12:00,39.0,38.0,30.08,West,278,0.0,-999.0,96,-99.99,,,-99.99,,2013-04-09 06:12:00,
2013-04-09 02:22:00,39.0,38.0,30.08,West,278,0.0,-999.0,96,-99.99,,,-99.99,,2013-04-09 06:22:00,
2013-04-09 02:32:00,39.0,38.0,30.08,West,278,0.0,-999.0,96,-99.99,,,-99.99,,2013-04-09 06:32:00,
2013-04-09 02:42:00,39.0,38.0,30.08,West,278,0.0,-999.0,96,-99.99,,,-99.99,,2013-04-09 06:42:00,
2013-04-09 02:52:00,39.0,38.0,30.09,West,278,0.0,-999.0,96,-99.99,,,-99.99,,2013-04-09 06:52:00,
2013-04-09 03:02:00,39.0,38.0,30.08,NW,306,0.0,-999.0,96,-99.99,,,-99.99,,2013-04-09 07:02:00,
2013-04-09 03:13:00,39.0,38.0,30.08,NW,306,0.0,-999.0,96,-99.99,,,-99.99,,2013-04-09 07:13:00,
2013-04-09 03:22:00,39.0,38.0,30.08,NE,38,1.0,-999.0,96,-99.99,,,-99.99,,2013-04-09 07:22:00,
2013-04-09 03:32:00,39.0,38.0,30.08,East,92,0.0,-999.0,96,-99.99,,,-99.99,,2013-04-09 07:32:00,
2013-04-09 03:42:00,39.0,38.0,30.08,East,92,0.0,-999.0,96,-99.99,,,-99.99,,2013-04-09 07:42:00,
2013-04-09 03:53:00,40.0,39.0,30.07,ESE,109,1.0,-999.0,97,-99.99,,,-99.99,,2013-04-09 07:53:00,
2013-04-09 04:03:00,40.0,39.0,30.07,ESE,109,2.0,-999.0,97,-99.99,,,-99.99,,2013-04-09 08:03:00,
2013-04-09 04:12:00,40.0,39.0,30.07,ESE,109,2.0,-999.0,97,-99.99,,,-99.99,,2013-04-09 08:12:00,
2013-04-09 04:22:00,40.0,39.0,30.08,ENE,78,1.0,-999.0,97,-99.99,,,-99.99,,2013-04-09 08:22:00,
2013-04-09 04:32:00,40.0,39.0,30.07,ENE,68,2.0,-999.0,96,-99.99,,,-99.99,,2013-04-09 08:32:00,
2013-04-09 04:42:00,40.0,39.0,30.07,ENE,68,2.0,-999.0,96,-99.99,,,-99.99,,2013-04-09 08:42:00,
2013-04-09 04:52:00,40.0,39.0,30.07,East,92,2.0,-999.0,97,-99.99,,,-99.99,,2013-04-09 08:52:00,
2013-04-09 05:02:00,40.0,39.0,30.08,East,99,3.0,-999.0,97,-99.99,,,-99.99,,2013-04-09 09:02:00,
2013-04-09 05:12:00,40.0,39.0,30.09,East,85,1.0,-999.0,97,-99.99,,,-99.99,,2013-04-09 09:12:00,
2013-04-09 05:22:00,40.0,39.0,30.09,East,85,1.0,-999.0,97,-99.99,,,-99.99,,2013-04-09 09:22:00,
2013-04-09 05:33:00,40.0,39.0,30.09,East,85,1.0,-999.0,97,-99.99,,,-99.99,,2013-04-09 09:33:00,
2013-04-09 05:43:00,40.0,39.0,30.09,East,85,1.0,-999.0,97,-99.99,,,-99.99,,2013-04-09 09:43:00,
2013-04-09 05:53:00,40.0,39.0,30.10,ESE,118,3.0,-999.0,97,-99.99,,,-99.99,,2013-04-09 09:53:00,
2013-04-09 06:03:00,40.0,39.0,30.10,SE,130,2.0,-999.0,97,-99.99,,,-99.99,,2013-04-09 10:03:00,
2013-04-09 06:13:00,40.0,39.0,30.10,SE,130,2.0,-999.0,97,-99.99,,,-99.99,,2013-04-09 10:13:00,
2013-04-09 06:23:00,40.0,39.0,30.09,ESE,103,3.0,-999.0,97,-99.99,,,-99.99,,2013-04-09 10:23:00,
2013-04-09 06:33:00,40.0,39.0,30.10,SE,132,3.0,-999.0,97,-99.99,,,-99.99,,2013-04-09 10:33:00,
2013-04-09 06:43:00,40.0,39.0,30.10,SE,132,3.0,-999.0,97,-99.99,,,-99.99,,2013-04-09 10:43:00,
2013-04-09 06:52:00,40.0,39.0,30.09,ESE,102,3.0,-999.0,97,-99.99,,,-99.99,,2013-04-09 10:52:00,
2013-04-09 07:02:00,40.0,39.0,30.08,ESE,113,4.0,-999.0,97,-99.99,,,-99.99,,2013-04-09 11:02:00,
2013-04-09 07:12:00,40.0,39.0,30.08,ESE,113,4.0,-999.0,97,-99.99,,,-99.99,,2013-04-09 11:12:00,
2013-04-09 07:22:00,40.0,39.0,30.09,SE,133,1.0,-999.0,97,-99.99,,,-99.99,,2013-04-09 11:22:00,
2013-04-09 07:32:00,40.0,39.0,30.09,East,88,3.0,-999.0,97,-99.99,,,-99.99,,2013-04-09 11:32:00,
2013-04-09 07:42:00,40.0,39.0,30.09,East,88,3.0,-999.0,97,-99.99,,,-99.99,,2013-04-09 11:42:00,
2013-04-09 07:52:00,40.0,39.0,30.07,East,93,6.0,-999.0,97,-99.99,,,-99.99,,2013-04-09 11:52:00,
2013-04-09 08:02:00,40.0,39.0,30.08,NE,51,6.0,-999.0,97,-99.99,,,-99.99,,2013-04-09 12:02:00,
2013-04-09 08:12:00,40.0,39.0,30.08,NE,51,6.0,-999.0,97,-99.99,,,-99.99,,2013-04-09 12:12:00,
2013-04-09 08:22:00,41.0,40.0,30.07,East,82,3.0,-999.0,97,-99.99,,,-99.99,,2013-04-09 12:22:00,
2013-04-09 08:32:00,41.0,40.0,30.09,East,86,3.0,-999.0,97,-99.99,,,-99.99,,2013-04-09 12:32:00,
2013-04-09 08:42:00,41.0,40.0,30.09,East,86,3.0,-999.0,97,-99.99,,,-99.99,,2013-04-09 12:42:00,
2013-04-09 08:52:00,41.0,40.0,30.09,SE,129,4.0,-999.0,97,-99.99,,,-99.99,,2013-04-09 12:52:00,
2013-04-09 09:03:00,41.0,40.0,30.07,ESE,106,4.0,-999.0,97,-99.99,,,-99.99,,2013-04-09 13:03:00,
2013-04-09 09:12:00,41.0,40.0,30.07,ESE,106,4.0,-999.0,97,-99.99,,,-99.99,,2013-04-09 13:12:00,
2013-04-09 09:23:00,41.0,40.0,30.07,East,90,4.0,-999.0,97,-99.99,,,-99.99,,2013-04-09 13:23:00,
2013-04-09 09:33:00,41.0,40.0,30.06,East,92,4.0,-999.0,97,-99.99,,,-99.99,,2013-04-09 13:33:00,
2013-04-09 09:43:00,41.0,40.0,30.06,East,92,4.0,-999.0,97,-99.99,,,-99.99,,2013-04-09 13:43:00,
2013-04-09 09:52:00,42.0,41.0,30.05,ESE,117,4.0,-999.0,97,-99.99,,,-99.99,,2013-04-09 13:52:00,
2013-04-09 10:03:00,42.0,41.0,30.04,East,99,5.0,-999.0,97,-99.99,,,-99.99,,2013-04-09 14:03:00,
2013-04-09 10:12:00,42.0,41.0,30.04,East,99,5.0,-999.0,97,-99.99,,,-99.99,,2013-04-09 14:12:00,
2013-04-09 10:22:00,42.0,41.0,30.04,ESE,107,4.0,-999.0,97,-99.99,,,-99.99,,2013-04-09 14:22:00,
2013-04-09 10:33:00,42.0,41.0,30.05,ESE,113,4.0,-999.0,97,-99.99,,,-99.99,,2013-04-09 14:33:00,
2013-04-09 10:43:00,42.0,41.0,30.05,ESE,113,4.0,-999.0,97,-99.99,,,-99.99,,2013-04-09 14:43:00,
2013-04-09 10:52:00,42.0,41.0,30.06,East,101,2.0,-999.0,97,-99.99,,,-99.99,,2013-04-09 14:52:00,
2013-04-09 11:02:00,42.0,41.0,30.05,East,101,3.0,-999.0,97,-99.99,,,-99.99,,2013-04-09 15:02:00,
2013-04-09 11:13:00,42.0,41.0,30.05,East,101,3.0,-999.0,97,-99.99,,,-99.99,,2013-04-09 15:13:00,
2013-04-09 11:23:00,42.0,41.0,30.05,East,98,3.0,-999.0,97,-99.99,,,-99.99,,2013-04-09 15:23:00,
2013-04-09 11:34:00,42.0,41.0,30.05,ENE,72,3.0,-999.0,97,-99.99,,,-99.99,,2013-04-09 15:34:00,
2013-04-09 11:43:00,42.0,41.0,30.05,ENE,72,3.0,-999.0,97,-99.99,,,-99.99,,2013-04-09 15:43:00,
2013-04-09 11:53:00,43.0,42.0,30.02,East,100,5.0,-999.0,97,-99.99,,,-99.99,,2013-04-09 15:53:00,
2013-04-09 12:03:00,43.0,42.0,30.07,NE,34,8.0,-999.0,97,-99.99,,,-99.99,,2013-04-09 16:03:00,
2013-04-09 12:13:00,43.0,42.0,30.07,NE,34,8.0,-999.0,97,-99.99,,,-99.99,,2013-04-09 16:13:00,
2013-04-09 12:23:00,42.0,41.0,30.04,ENE,62,7.0,-999.0,97,-99.99,,,-99.99,,2013-04-09 16:23:00,
2013-04-09 12:33:00,42.0,41.0,30.03,ENE,65,5.0,-999.0,97,-99.99,,,-99.99,,2013-04-09 16:33:00,
2013-04-09 12:42:00,42.0,41.0,30.03,ENE,65,5.0,-999.0,97,-99.99,,,-99.99,,2013-04-09 16:42:00,
2013-04-09 12:54:00,43.0,42.0,30.02,NE,54,4.0,-999.0,97,-99.99,,,-99.99,,2013-04-09 16:54:00,
2013-04-09 13:02:00,42.0,41.0,30.00,ESE,117,7.0,-999.0,97,-99.99,,,-99.99,,2013-04-09 17:02:00,
2013-04-09 13:13:00,42.0,41.0,30.00,ESE,117,7.0,-999.0,97,-99.99,,,-99.99,,2013-04-09 17:13:00,
2013-04-09 13:23:00,42.0,41.0,30.00,ENE,63,5.0,-999.0,97,-99.99,,,-99.99,,2013-04-09 17:23:00,
2013-04-09 13:32:00,42.0,41.0,30.03,North,9,5.0,-999.0,97,-99.99,,,-99.99,,2013-04-09 17:32:00,
2013-04-09 13:43:00,42.0,41.0,30.03,North,9,5.0,-999.0,97,-99.99,,,-99.99,,2013-04-09 17:43:00,
2013-04-09 13:54:00,43.0,42.0,30.02,NE,49,5.0,-999.0,97,-99.99,,,-99.99,,2013-04-09 17:54:00,
2013-04-09 14:02:00,43.0,42.0,29.98,ENE,78,7.0,-999.0,97,-99.99,,,-99.99,,2013-04-09 18:02:00,
2013-04-09 14:13:00,43.0,42.0,29.98,ENE,78,7.0,-999.0,97,-99.99,,,-99.99,,2013-04-09 18:13:00,
2013-04-09 14:23:00,43.0,42.0,29.97,ENE,63,8.0,-999.0,97,-99.99,,,-99.99,,2013-04-09 18:23:00,
2013-04-09 14:33:00,43.0,42.0,29.96,ESE,115,6.0,-999.0,97,-99.99,,,-99.99,,2013-04-09 18:33:00,
2013-04-09 14:43:00,43.0,42.0,29.96,ESE,115,6.0,-999.0,97,-99.99,,,-99.99,,2013-04-09 18:43:00,
2013-04-09 14:53:00,43.0,42.0,29.96,ESE,105,7.0,-999.0,97,-99.99,,,-99.99,,2013-04-09 18:53:00,
2013-04-09 15:03:00,43.0,42.0,29.96,ESE,105,7.0,-999.0,97,-99.99,,,-99.99,,2013-04-09 19:03:00,
2013-04-09 15:12:00,43.0,42.0,29.96,ESE,105,7.0,-999.0,97,-99.99,,,-99.99,,2013-04-09 19:12:00,
2013-04-09 15:22:00,43.0,42.0,29.96,ESE,105,7.0,-999.0,97,-99.99,,,-99.99,,2013-04-09 19:22:00,
2013-04-09 15:32:00,44.0,43.0,29.96,ESE,109,5.0,-999.0,97,-99.99,,,-99.99,,2013-04-09 19:32:00,
2013-04-09 15:42:00,44.0,43.0,29.96,ESE,109,5.0,-999.0,97,-99.99,,,-99.99,,2013-04-09 19:42:00,
2013-04-09 15:53:00,45.0,44.0,29.94,ESE,110,5.0,-999.0,97,-99.99,,,-99.99,,2013-04-09 19:53:00,
2013-04-09 16:02:00,45.0,44.0,29.94,East,96,5.0,-999.0,97,-99.99,,,-99.99,,2013-04-09 20:02:00,
2013-04-09 16:12:00,46.0,45.0,29.93,East,88,6.0,-999.0,98,-99.99,,,-99.99,,2013-04-09 20:12:00,
2013-04-09 16:22:00,46.0,45.0,29.93,East,88,6.0,-999.0,98,-99.99,,,-99.99,,2013-04-09 20:22:00,
2013-04-09 16:33:00,46.0,45.0,29.91,ESE,109,6.0,-999.0,97,-99.99,,,-99.99,,2013-04-09 20:33:00,
2013-04-09 16:43:00,46.0,45.0,29.91,ESE,109,6.0,-999.0,97,-99.99,,,-99.99,,2013-04-09 20:43:00,
2013-04-09 16:53:00,46.0,45.0,29.91,ESE,109,6.0,-999.0,97,-99.99,,,-99.99,,2013-04-09 20:53:00,
2013-04-09 17:02:00,46.0,45.0,29.92,ESE,103,5.0,-999.0,97,-99.99,,,-99.99,,2013-04-09 21:02:00,
2013-04-09 17:13:00,46.0,45.0,29.92,ESE,103,5.0,-999.0,97,-99.99,,,-99.99,,2013-04-09 21:13:00,
2013-04-09 17:23:00,46.0,45.0,29.92,ESE,103,5.0,-999.0,97,-99.99,,,-99.99,,2013-04-09 21:23:00,
2013-04-09 17:33:00,46.0,45.0,29.91,East,99,6.0,-999.0,97,-99.99,,,-99.99,,2013-04-09 21:33:00,
2013-04-09 17:42:00,46.0,45.0,29.91,East,99,6.0,-999.0,97,-99.99,,,-99.99,,2013-04-09 21:42:00,
2013-04-09 17:52:00,46.0,45.0,29.92,NE,51,3.0,-999.0,97,-99.99,,,-99.99,,2013-04-09 21:52:00,
2013-04-09 18:03:00,47.0,46.0,29.92,ENE,65,3.0,-999.0,97,-99.99,,,-99.99,,2013-04-09 22:03:00,
2013-04-09 18:13:00,47.0,46.0,29.92,NNE,20,3.0,-999.0,97,-99.99,,,-99.99,,2013-04-09 22:13:00,
2013-04-09 18:23:00,47.0,46.0,29.92,NNE,20,3.0,-999.0,97,-99.99,,,-99.99,,2013-04-09 22:23:00,
2013-04-09 18:33:00,47.0,46.0,29.95,North,360,4.0,-999.0,97,-99.99,,,-99.99,,2013-04-09 22:33:00,
2013-04-09 18:42:00,47.0,46.0,29.95,North,360,4.0,-999.0,97,-99.99,,,-99.99,,2013-04-09 22:42:00,
2013-04-09 18:53:00,47.0,46.0,29.96,NNE,22,4.0,-999.0,97,-99.99,,,-99.99,,2013-04-09 22:53:00,
2013-04-09 19:03:00,47.0,46.0,29.96,NE,39,5.0,-999.0,97,-99.99,,,-99.99,,2013-04-09 23:03:00,
2013-04-09 19:13:00,46.0,45.0,29.96,NNE,13,6.0,-999.0,97,-99.99,,,-99.99,,2013-04-09 23:13:00,
2013-04-09 19:23:00,46.0,45.0,29.96,NNE,13,6.0,-999.0,97,-99.99,,,-99.99,,2013-04-09 23:23:00,
2013-04-09 19:32:00,46.0,45.0,29.96,ESE,107,3.0,-999.0,97,-99.99,,,-99.99,,2013-04-09 23:32:00,
2013-04-09 19:42:00,46.0,45.0,29.96,ESE,107,3.0,-999.0,97,-99.99,,,-99.99,,2013-04-09 23:42:00,
2013-04-09 19:52:00,46.0,45.0,29.98,NE,34,5.0,-999.0,97,-99.99,,,-99.99,,2013-04-09 23:52:00,
2013-04-09 20:03:00,46.0,45.0,29.98,NE,34,5.0,-999.0,97,-99.99,,,-99.99,,2013-04-10 00:03:00,
2013-04-09 20:13:00,46.0,45.0,29.98,NE,34,5.0,-999.0,97,-99.99,,,-99.99,,2013-04-10 00:13:00,
2013-04-09 20:23:00,46.0,45.0,29.98,NE,44,6.0,-999.0,97,-99.99,,,-99.99,,2013-04-10 00:23:00,
2013-04-09 20:33:00,45.0,44.0,29.99,NNE,23,5.0,-999.0,97,-99.99,,,-99.99,,2013-04-10 00:33:00,
2013-04-09 20:42:00,45.0,44.0,29.99,NNE,23,5.0,-999.0,97,-99.99,,,-99.99,,2013-04-10 00:42:00,
2013-04-09 20:52:00,45.0,44.0,30.01,ENE,59,8.0,-999.0,97,-99.99,,,-99.99,,2013-04-10 00:52:00,
2013-04-09 21:02:00,44.0,43.0,30.00,ENE,60,8.0,-999.0,97,-99.99,,,-99.99,,2013-04-10 01:02:00,
2013-04-09 21:12:00,43.0,42.0,30.00,ENE,65,9.0,-999.0,97,-99.99,,,-99.99,,2013-04-10 01:12:00,
2013-04-09 21:23:00,43.0,42.0,30.00,ENE,65,9.0,-999.0,97,-99.99,,,-99.99,,2013-04-10 01:23:00,
2013-04-09 21:32:00,42.0,41.0,30.01,ENE,69,9.0,-999.0,97,-99.99,,,-99.99,,2013-04-10 01:32:00,
2013-04-09 21:42:00,42.0,41.0,30.01,ENE,69,9.0,-999.0,97,-99.99,,,-99.99,,2013-04-10 01:42:00,
2013-04-09 21:52:00,42.0,41.0,30.02,NE,49,7.0,-999.0,96,-99.99,,,-99.99,,2013-04-10 01:52:00,
2013-04-09 22:02:00,42.0,41.0,30.02,ESE,122,7.0,-999.0,96,-99.99,,,-99.99,,2013-04-10 02:02:00,
2013-04-09 22:13:00,42.0,41.0,30.02,ESE,122,7.0,-999.0,96,-99.99,,,-99.99,,2013-04-10 02:13:00,
2013-04-09 22:22:00,42.0,41.0,30.03,NNE,29,5.0,-999.0,97,-99.99,,,-99.99,,2013-04-10 02:22:00,
2013-04-09 22:33:00,42.0,41.0,30.03,East,90,5.0,-999.0,97,-99.99,,,-99.99,,2013-04-10 02:33:00,
2013-04-09 22:43:00,42.0,41.0,30.03,East,90,5.0,-999.0,97,-99.99,,,-99.99,,2013-04-10 02:43:00,
2013-04-09 22:52:00,42.0,41.0,30.04,ENE,69,5.0,-999.0,97,-99.99,,,-99.99,,2013-04-10 02:52:00,
2013-04-09 23:03:00,42.0,41.0,30.04,ENE,75,6.0,-999.0,97,-99.99,,,-99.99,,2013-04-10 03:03:00,
2013-04-09 23:12:00,42.0,41.0,30.04,ENE,75,6.0,-999.0,97,-99.99,,,-99.99,,2013-04-10 03:12:00,
2013-04-09 23:22:00,42.0,41.0,30.05,ENE,69,6.0,-999.0,97,-99.99,,,-99.99,,2013-04-10 03:22:00,
2013-04-09 23:33:00,42.0,41.0,30.05,ENE,67,3.0,-999.0,96,-99.99,,,-99.99,,2013-04-10 03:33:00,
2013-04-09 23:43:00,42.0,41.0,30.05,ENE,67,3.0,-999.0,96,-99.99,,,-99.99,,2013-04-10 03:43:00,
2013-04-09 23:53:00,42.0,41.0,30.04,ENE,60,6.0,-999.0,96,-99.99,,,-99.99,,2013-04-10 03:53:00,